Weather in Puerto Morelos

Mexico     20°50′47″N   86°52′36″W
temp.,
°C
wind,
m/s
gust,
m/s
humid.,
%
clouds,
%
prec.,
mm/h
press.,
hPa
HPBL,
m
16 september, thu
thu1601:00+27se378699 0.1 1011505
04:00+27se388357 0.1 1011550
07:00+26se268676 0.2 1011365
10:00+29sse378074 1.4 1013928
13:00+28sse378689 3.6 1013831
16:00+27sse3688100 3.5 1011519
19:00+26se2794100 5.8 1012306
22:00+26se289394 0.0 1014344
17 september, fri
fri1701:00+27se3986100 0.1 1013694
04:00+27se4984100 0.1 1013776
07:00+27se3882100 0.1 1015709
10:00+30se476893 0.1 10161200
13:00+29ese3780100 1.5 1016779
16:00+28se3683100 0.8 1014616
19:00+26ese2593100 1.0 1015214
22:00+26ese2794100 0.1 1016336
18 september, sat
sat1801:00+26ese2788100 0.1 1015396
04:00+26ese2787100 0.0 1014376
07:00+27e3885100 0.1 1015547
10:00+30ese466987 0.1 10161188
13:00+32ese45585 0.3 10161568
16:00+31ese34605 0.1 10141386
19:00+27e23845 0.1 1014156
22:00+26e23895 0.0 1016160
19 september, sun
sun1901:00+25ene249375 0.0 1015185
04:00+26ene269267 0.0 1014268
07:00+26ne269134 0.1 1014292
10:00+31e36647 0.0 10161231
13:00+32e35583 0.0 10151480
16:00+31e34621 0.0 10131232
19:00+27ene24868 0.0 1013169
22:00+26ene239184 0.1 1015159
20 september, mon
mon2001:00+26ene129271 0.2 1014115
04:00+25ene249476 0.2 1013173
07:00+26ene279188 0.3 1013330
10:00+30e356568 0.0 10151283
13:00+31e346220 0.8 10141298
16:00+31ene346093 0.4 10121189
19:00+27ene2686100 0.4 1013319
22:00+27ene3785100 0.1 1014442